• In India
  • List of Countries
  • For 7 days
  • Water Temperature
  • Satellite Maps
  • Weather Map
  • Weather Widgets
  • user-avatar
    Login

    Hourly Weather Duesseldorf

    Today, 22 September, Saturday

    Time Temperature Precipitation Wind Pressure Humidity
    00:00 +13°C° 0 mm 5 mps 760 mmHg 67%
    01:00 +12°C° 0 mm 5 mps 760 mmHg 69%
    02:00 +12°C° 0 mm 5 mps 760 mmHg 70%
    03:00 +12°C° 0 mm 5 mps 761 mmHg 72%
    04:00 +12°C° 0 mm 5 mps 761 mmHg 74%
    05:00 +11°C° 0 mm 4 mps 761 mmHg 75%
    06:00 +11°C° 0 mm 4 mps 762 mmHg 75%
    07:00 +13°C° 0 mm 4 mps 762 mmHg 69%
    08:00 +14°C° 0 mm 5 mps 761 mmHg 64%
    09:00 +15°C° 0 mm 5 mps 761 mmHg 58%
    10:00 +16°C° 0.1 mm 5 mps 761 mmHg 57%
    11:00 +16°C° 0.1 mm 5 mps 761 mmHg 55%
    12:00 +16°C° 0 mm 5 mps 761 mmHg 58%
    13:00 +15°C° 0.5 mm 4 mps 761 mmHg 64%
    14:00 +14°C° 0.5 mm 4 mps 761 mmHg 69%
    15:00 +14°C° 0.5 mm 4 mps 761 mmHg 75%
    16:00 +13°C° 0.4 mm 3 mps 761 mmHg 78%
    17:00 +13°C° 0.4 mm 3 mps 761 mmHg 80%
    18:00 +12°C° 0.4 mm 3 mps 761 mmHg 83%
    19:00 +13°C° 0.3 mm 2 mps 761 mmHg 84%
    20:00 +13°C° 0.3 mm 2 mps 761 mmHg 84%
    21:00 +13°C° 0.3 mm 2 mps 760 mmHg 85%
    22:00 +13°C° 0.2 mm 2 mps 760 mmHg 85%
    23:00 +13°C° 0.2 mm 2 mps 759 mmHg 86%

    Tomorrow, 23 September, Sunday

    Time Temperature Precipitation Wind Pressure Humidity
    00:00 +13°C° 0.2 mm 2 mps 759 mmHg 86%
    01:00 +13°C° 0.3 mm 2 mps 758 mmHg 86%
    02:00 +13°C° 0.3 mm 2 mps 757 mmHg 87%
    03:00 +13°C° 0.3 mm 2 mps 757 mmHg 87%
    04:00 +13°C° 0.5 mm 2 mps 756 mmHg 88%
    05:00 +13°C° 0.5 mm 2 mps 756 mmHg 88%
    06:00 +13°C° 0.5 mm 2 mps 755 mmHg 89%
    07:00 +13°C° 0.4 mm 2 mps 755 mmHg 89%
    08:00 +13°C° 0.4 mm 2 mps 755 mmHg 88%
    09:00 +13°C° 0.4 mm 1 mps 755 mmHg 88%
    10:00 +13°C° 1.5 mm 2 mps 754 mmHg 89%
    11:00 +12°C° 1.5 mm 3 mps 754 mmHg 89%
    12:00 +12°C° 1.5 mm 4 mps 753 mmHg 90%
    13:00 +11°C° 5.3 mm 4 mps 754 mmHg 89%
    14:00 +11°C° 5.3 mm 4 mps 754 mmHg 89%
    15:00 +10°C° 5.3 mm 4 mps 754 mmHg 89%
    16:00 +10°C° 0.9 mm 4 mps 755 mmHg 89%
    17:00 +10°C° 0.9 mm 4 mps 757 mmHg 89%
    18:00 +9°C° 0.9 mm 5 mps 758 mmHg 90%
    19:00 +10°C° 0.7 mm 4 mps 759 mmHg 89%
    20:00 +10°C° 0.7 mm 4 mps 761 mmHg 88%
    21:00 +10°C° 0.7 mm 4 mps 762 mmHg 87%
    22:00 +10°C° 0 mm 4 mps 763 mmHg 86%
    23:00 +9°C° 0 mm 3 mps 764 mmHg 86%

    Day after tomorrow, 24 September, Monday

    Time Temperature Precipitation Wind Pressure Humidity
    00:00 +9°C° 0 mm 3 mps 765 mmHg 85%
    01:00 +9°C° 0 mm 3 mps 766 mmHg 85%
    02:00 +8°C° 0 mm 3 mps 767 mmHg 84%
    03:00 +8°C° 0 mm 3 mps 768 mmHg 84%
    04:00 +8°C° 0 mm 3 mps 768 mmHg 84%
    05:00 +8°C° 0 mm 2 mps 769 mmHg 84%
    06:00 +8°C° 0 mm 2 mps 770 mmHg 84%
    07:00 +9°C° 0 mm 3 mps 770 mmHg 78%
    08:00 +11°C° 0 mm 3 mps 771 mmHg 71%
    09:00 +13°C° 0 mm 3 mps 771 mmHg 64%
    10:00 +13°C° 0.2 mm 4 mps 771 mmHg 62%
    11:00 +14°C° 0.2 mm 4 mps 771 mmHg 60%
    12:00 +14°C° 0.2 mm 4 mps 772 mmHg 58%
    13:00 +14°C° 0.1 mm 4 mps 772 mmHg 57%
    14:00 +14°C° 0.1 mm 4 mps 772 mmHg 57%
    15:00 +14°C° 0.1 mm 4 mps 772 mmHg 56%
    16:00 +13°C° 0 mm 4 mps 772 mmHg 59%
    17:00 +12°C° 0 mm 3 mps 772 mmHg 63%
    18:00 +12°C° 0 mm 2 mps 773 mmHg 66%
    19:00 +10°C° 0 mm 2 mps 773 mmHg 69%
    20:00 +10°C° 0 mm 2 mps 774 mmHg 71%
    21:00 +10°C° 0 mm 1 mps 774 mmHg 73%
    22:00 +10°C° 0 mm 1 mps 775 mmHg 76%
    23:00 +9°C° 0 mm 1 mps 775 mmHg 78%

    25 September, Tuesday

    Time Temperature Precipitation Wind Pressure Humidity
    00:00 +9°C° 0 mm 1 mps 775 mmHg 80%
    01:00 +8°C° 0 mm 0 mps 775 mmHg 81%
    02:00 +7°C° 0 mm 0 mps 775 mmHg 82%
    03:00 +7°C° 0 mm 0 mps 775 mmHg 83%
    04:00 +7°C° 0 mm 0 mps 775 mmHg 83%
    05:00 +7°C° 0 mm 0 mps 775 mmHg 83%
    06:00 +7°C° 0 mm 0 mps 775 mmHg 83%
    07:00 +9°C° 0 mm 0 mps 776 mmHg 74%
    08:00 +12°C° 0 mm 1 mps 776 mmHg 66%
    09:00 +14°C° 0 mm 1 mps 776 mmHg 58%
    10:00 +15°C° 0 mm 1 mps 776 mmHg 53%
    11:00 +16°C° 0 mm 1 mps 775 mmHg 47%
    12:00 +18°C° 0 mm 1 mps 775 mmHg 42%
    13:00 +18°C° 0 mm 1 mps 775 mmHg 41%
    14:00 +18°C° 0 mm 1 mps 774 mmHg 41%
    15:00 +17°C° 0 mm 2 mps 774 mmHg 40%
    16:00 +16°C° 0 mm 1 mps 774 mmHg 45%
    17:00 +14°C° 0 mm 1 mps 774 mmHg 50%
    18:00 +13°C° 0 mm 1 mps 774 mmHg 54%
    19:00 +12°C° 0 mm 2 mps 774 mmHg 57%
    20:00 +12°C° 0 mm 2 mps 774 mmHg 59%
    21:00 +10°C° 0 mm 2 mps 774 mmHg 62%
    22:00 +10°C° 0 mm 2 mps 774 mmHg 63%
    23:00 +9°C° 0 mm 2 mps 773 mmHg 65%

    26 September, Wednesday

    Time Temperature Precipitation Wind Pressure Humidity
    00:00 +9°C° 0 mm 2 mps 773 mmHg 66%
    01:00 +8°C° 0 mm 2 mps 773 mmHg 65%
    02:00 +8°C° 0 mm 2 mps 772 mmHg 65%
    03:00 +8°C° 0 mm 2 mps 772 mmHg 65%
    04:00 +8°C° 0 mm 2 mps 772 mmHg 64%
    05:00 +7°C° 0 mm 2 mps 772 mmHg 64%
    06:00 +8°C° 0 mm 1 mps 772 mmHg 64%
    07:00 +9°C° 0 mm 2 mps 772 mmHg 58%
    08:00 +12°C° 0 mm 2 mps 772 mmHg 52%
    09:00 +14°C° 0 mm 2 mps 771 mmHg 46%
    10:00 +16°C° 0 mm 2 mps 771 mmHg 42%
    11:00 +17°C° 0 mm 2 mps 771 mmHg 38%
    12:00 +19°C° 0 mm 2 mps 770 mmHg 34%
    13:00 +19°C° 0 mm 2 mps 770 mmHg 35%
    14:00 +19°C° 0 mm 2 mps 769 mmHg 35%
    15:00 +19°C° 0 mm 2 mps 769 mmHg 36%
    16:00 +18°C° 0 mm 2 mps 769 mmHg 40%
    17:00 +16°C° 0 mm 1 mps 769 mmHg 45%
    18:00 +14°C° 0 mm 1 mps 769 mmHg 50%
    19:00 +14°C° 0 mm 1 mps 769 mmHg 52%
    20:00 +13°C° 0 mm 1 mps 769 mmHg 54%
    21:00 +13°C° 0 mm 1 mps 770 mmHg 56%
    22:00 +12°C° 0 mm 1 mps 770 mmHg 57%
    23:00 +12°C° 0 mm 1 mps 769 mmHg 59%

    27 September, Thursday

    Time Temperature Precipitation Wind Pressure Humidity
    00:00 +12°C° 0 mm 1 mps 769 mmHg 60%
    01:00 +10°C° 0 mm 2 mps 769 mmHg 61%
    02:00 +10°C° 0 mm 2 mps 769 mmHg 62%
    03:00 +10°C° 0 mm 2 mps 769 mmHg 63%
    04:00 +10°C° 0 mm 2 mps 769 mmHg 63%
    05:00 +10°C° 0 mm 2 mps 769 mmHg 64%
    06:00 +10°C° 0 mm 2 mps 768 mmHg 64%
    07:00 +13°C° 0 mm 2 mps 768 mmHg 59%
    08:00 +15°C° 0 mm 2 mps 768 mmHg 53%
    09:00 +17°C° 0 mm 2 mps 768 mmHg 48%
    10:00 +18°C° 0 mm 2 mps 768 mmHg 45%
    11:00 +20°C° 0 mm 2 mps 767 mmHg 42%
    12:00 +21°C° 0 mm 2 mps 767 mmHg 39%
    13:00 +21°C° 0 mm 2 mps 766 mmHg 40%
    14:00 +21°C° 0 mm 2 mps 766 mmHg 42%
    15:00 +21°C° 0 mm 2 mps 765 mmHg 43%
    16:00 +20°C° 0 mm 2 mps 765 mmHg 47%
    17:00 +18°C° 0 mm 2 mps 765 mmHg 52%
    18:00 +18°C° 0 mm 1 mps 765 mmHg 57%
    19:00 +16°C° 0 mm 1 mps 765 mmHg 59%
    20:00 +16°C° 0 mm 1 mps 765 mmHg 62%
    21:00 +15°C° 0 mm 1 mps 765 mmHg 64%
    22:00 +15°C° 0 mm 1 mps 765 mmHg 67%
    23:00 +14°C° 0 mm 1 mps 765 mmHg 69%
    Show more